Time,TemperatureF,DewpointF,PressureIn,WindDirection,WindDirectionDegrees,WindSpeedMPH,WindSpeedGustMPH,Humidity,HourlyPrecipIn,Conditions,Clouds,dailyrainin,SoftwareType,DateUTC
2013-01-27 00:00:00,25.0,25.0,30.48,NNE,22,0.0,0.0,100,0.00,RA,SKC,0.00,WeatherDisplay:10.37,2013-01-27 05:00:00,
2013-01-27 00:02:00,24.0,24.0,30.48,NNE,22,0.0,0.0,100,0.00,RA,SKC,0.00,WeatherDisplay:10.37,2013-01-27 05:02:00,
2013-01-27 00:03:00,24.0,24.0,30.48,NNE,22,0.0,0.0,100,0.00,RA,SKC,0.00,WeatherDisplay:10.37,2013-01-27 05:03:00,
2013-01-27 00:08:00,24.0,24.0,30.50,NNE,22,0.0,0.0,100,0.00,RA,SKC,0.00,WeatherDisplay:10.37,2013-01-27 05:08:00,
2013-01-27 00:13:00,24.0,24.0,30.50,NNE,22,0.0,0.0,100,0.00,,SKC,0.00,WeatherDisplay:10.37,2013-01-27 05:13:00,
2013-01-27 00:18:00,24.0,24.0,30.49,NNE,22,0.0,0.0,100,0.00,,SKC,0.00,WeatherDisplay:10.37,2013-01-27 05:18:00,
2013-01-27 00:23:00,24.0,24.0,30.49,NNE,22,3.5,3.5,100,0.00,,SKC,0.00,WeatherDisplay:10.37,2013-01-27 05:23:00,
2013-01-27 00:28:00,25.0,25.0,30.49,NNE,22,4.0,4.0,100,0.00,,SKC,0.00,WeatherDisplay:10.37,2013-01-27 05:28:00,
2013-01-27 00:33:00,24.0,24.0,30.49,NNE,22,3.5,3.5,100,0.00,,SKC,0.00,WeatherDisplay:10.37,2013-01-27 05:33:00,
2013-01-27 00:38:00,24.0,24.0,30.50,NNE,22,2.3,2.3,100,0.00,,SKC,0.00,WeatherDisplay:10.37,2013-01-27 05:38:00,
2013-01-27 00:43:00,24.0,24.0,30.50,NNE,22,0.0,0.0,100,0.00,,SKC,0.00,WeatherDisplay:10.37,2013-01-27 05:43:00,
2013-01-27 00:48:00,23.0,23.0,30.50,NNE,22,0.0,0.0,100,0.00,,SKC,0.00,WeatherDisplay:10.37,2013-01-27 05:48:00,
2013-01-27 00:53:00,22.0,22.0,30.50,NNW,337,1.1,0.0,100,0.00,,SKC,0.00,WeatherDisplay:10.37,2013-01-27 05:53:00,
2013-01-27 00:58:00,22.0,22.0,30.52,NNW,337,0.0,0.0,100,0.00,,SKC,0.00,WeatherDisplay:10.37,2013-01-27 05:58:00,
2013-01-27 01:03:00,22.0,22.0,30.52,NNW,337,0.0,0.0,100,0.00,,SKC,0.00,WeatherDisplay:10.37,2013-01-27 06:03:00,
2013-01-27 01:08:00,21.0,21.0,30.52,NNW,337,0.0,0.0,100,0.00,,SKC,0.00,WeatherDisplay:10.37,2013-01-27 06:08:00,
2013-01-27 01:13:00,21.0,21.0,30.52,NNW,337,0.0,0.0,100,0.00,,SKC,0.00,WeatherDisplay:10.37,2013-01-27 06:13:00,
2013-01-27 01:18:00,21.0,21.0,30.52,NNW,337,0.0,0.0,100,0.00,,SKC,0.00,WeatherDisplay:10.37,2013-01-27 06:18:00,
2013-01-27 01:23:00,21.0,21.0,30.52,NNW,337,0.0,0.0,100,0.00,,SKC,0.00,WeatherDisplay:10.37,2013-01-27 06:23:00,
2013-01-27 01:28:00,21.0,21.0,30.53,NNW,337,0.0,0.0,100,0.00,,SKC,0.00,WeatherDisplay:10.37,2013-01-27 06:28:00,
2013-01-27 01:33:00,21.0,21.0,30.53,NNW,337,0.0,0.0,100,0.00,,SKC,0.00,WeatherDisplay:10.37,2013-01-27 06:33:00,
2013-01-27 01:38:00,21.0,21.0,30.53,NNW,337,0.0,0.0,100,0.00,,SKC,0.00,WeatherDisplay:10.37,2013-01-27 06:38:00,
2013-01-27 01:43:00,21.0,21.0,30.53,NNW,337,0.0,0.0,100,0.00,,SKC,0.00,WeatherDisplay:10.37,2013-01-27 06:43:00,
2013-01-27 01:48:00,21.0,21.0,30.54,NNW,337,0.0,0.0,100,0.00,,SKC,0.00,WeatherDisplay:10.37,2013-01-27 06:48:00,
2013-01-27 01:53:00,21.0,21.0,30.54,NNW,337,0.0,0.0,100,0.00,,SKC,0.00,WeatherDisplay:10.37,2013-01-27 06:53:00,
2013-01-27 01:58:00,21.0,21.0,30.54,NNW,337,1.1,1.1,100,0.00,,SKC,0.00,WeatherDisplay:10.37,2013-01-27 06:58:00,
2013-01-27 02:03:00,21.0,21.0,30.54,NNW,337,0.0,0.0,100,0.00,,SKC,0.00,WeatherDisplay:10.37,2013-01-27 07:03:00,
2013-01-27 02:08:00,22.0,22.0,30.54,NNW,337,0.0,0.0,100,0.00,,SKC,0.00,WeatherDisplay:10.37,2013-01-27 07:08:00,
2013-01-27 02:13:00,22.0,22.0,30.54,NNW,337,0.0,0.0,100,0.00,,SKC,0.00,WeatherDisplay:10.37,2013-01-27 07:13:00,
2013-01-27 02:18:00,22.0,22.0,30.55,NNW,337,2.3,2.3,100,0.00,,SKC,0.00,WeatherDisplay:10.37,2013-01-27 07:18:00,
2013-01-27 02:23:00,22.0,22.0,30.55,NNW,337,1.1,0.0,100,0.00,,SKC,0.00,WeatherDisplay:10.37,2013-01-27 07:23:00,
2013-01-27 02:28:00,22.0,22.0,30.54,NNW,337,0.0,0.0,100,0.00,,SKC,0.00,WeatherDisplay:10.37,2013-01-27 07:28:00,
2013-01-27 02:33:00,22.0,22.0,30.54,NNW,337,0.0,0.0,100,0.00,,SKC,0.00,WeatherDisplay:10.37,2013-01-27 07:33:00,
2013-01-27 02:38:00,22.0,22.0,30.54,NNW,337,1.0,0.0,100,0.00,,SKC,0.00,WeatherDisplay:10.37,2013-01-27 07:38:00,
2013-01-27 02:43:00,22.0,22.0,30.54,NNW,337,0.0,0.0,100,0.00,,SKC,0.00,WeatherDisplay:10.37,2013-01-27 07:43:00,
2013-01-27 02:48:00,22.0,22.0,30.54,NNW,337,0.0,0.0,100,0.00,,SKC,0.00,WeatherDisplay:10.37,2013-01-27 07:48:00,
2013-01-27 02:53:00,22.0,22.0,30.54,NNW,337,1.1,1.1,100,0.00,,SKC,0.00,WeatherDisplay:10.37,2013-01-27 07:53:00,
2013-01-27 02:58:00,22.0,22.0,30.54,NNW,337,0.0,0.0,100,0.00,,SKC,0.00,WeatherDisplay:10.37,2013-01-27 07:58:00,
2013-01-27 03:03:00,22.0,22.0,30.54,NNW,337,0.0,0.1,100,0.00,,SKC,0.00,WeatherDisplay:10.37,2013-01-27 08:03:00,
2013-01-27 03:08:00,22.0,22.0,30.54,NNW,337,0.0,0.0,100,0.00,,SKC,0.00,WeatherDisplay:10.37,2013-01-27 08:08:00,
2013-01-27 03:13:00,21.0,21.0,30.54,SE,135,3.5,3.5,100,0.00,,SKC,0.00,WeatherDisplay:10.37,2013-01-27 08:13:00,
2013-01-27 03:18:00,21.0,21.0,30.54,East,90,4.6,4.6,100,0.00,,SKC,0.00,WeatherDisplay:10.37,2013-01-27 08:18:00,
2013-01-27 03:23:00,21.0,21.0,30.54,NE,45,3.5,3.5,100,0.00,,SKC,0.00,WeatherDisplay:10.37,2013-01-27 08:23:00,
2013-01-27 03:28:00,21.0,21.0,30.54,ENE,67,3.5,3.5,100,0.00,,SKC,0.00,WeatherDisplay:10.37,2013-01-27 08:28:00,
2013-01-27 03:33:00,21.0,21.0,30.54,ENE,67,3.5,3.5,100,0.00,,SKC,0.00,WeatherDisplay:10.37,2013-01-27 08:33:00,
2013-01-27 03:38:00,22.0,22.0,30.54,NNE,22,4.0,4.0,100,0.00,,SKC,0.00,WeatherDisplay:10.37,2013-01-27 08:38:00,
2013-01-27 03:43:00,22.0,22.0,30.54,NNE,22,3.0,3.0,100,0.00,,SKC,0.00,WeatherDisplay:10.37,2013-01-27 08:43:00,
2013-01-27 03:48:00,22.0,22.0,30.54,NE,45,3.5,3.5,100,0.00,,SKC,0.00,WeatherDisplay:10.37,2013-01-27 08:48:00,
2013-01-27 03:53:00,22.0,22.0,30.54,ENE,67,3.5,3.5,100,0.00,,SKC,0.00,WeatherDisplay:10.37,2013-01-27 08:53:00,
2013-01-27 03:58:00,22.0,22.0,30.54,ENE,67,3.5,3.5,100,0.00,,SKC,0.00,WeatherDisplay:10.37,2013-01-27 08:58:00,
2013-01-27 04:03:00,22.0,22.0,30.54,NE,45,4.0,4.0,100,0.00,,SKC,0.00,WeatherDisplay:10.37,2013-01-27 09:03:00,
2013-01-27 04:08:00,22.0,22.0,30.55,NNE,22,3.5,3.5,100,0.00,,SKC,0.00,WeatherDisplay:10.37,2013-01-27 09:08:00,
2013-01-27 04:13:00,22.0,22.0,30.55,East,90,3.5,3.5,100,0.00,,SKC,0.00,WeatherDisplay:10.37,2013-01-27 09:13:00,
2013-01-27 04:18:00,22.0,22.0,30.56,ENE,67,3.5,3.5,100,0.00,,SKC,0.00,WeatherDisplay:10.37,2013-01-27 09:18:00,
2013-01-27 04:23:00,22.0,22.0,30.56,ENE,67,0.0,0.0,100,0.00,,SKC,0.00,WeatherDisplay:10.37,2013-01-27 09:23:00,
2013-01-27 04:28:00,22.0,22.0,30.56,ENE,67,0.0,0.0,100,0.00,,SKC,0.00,WeatherDisplay:10.37,2013-01-27 09:28:00,
2013-01-27 04:33:00,22.0,22.0,30.56,ENE,67,3.5,3.5,100,0.00,,SKC,0.00,WeatherDisplay:10.37,2013-01-27 09:33:00,
2013-01-27 04:38:00,22.0,22.0,30.56,ESE,112,3.5,3.5,100,0.00,,SKC,0.00,WeatherDisplay:10.37,2013-01-27 09:38:00,
2013-01-27 04:43:00,22.0,22.0,30.56,ESE,112,1.0,0.0,100,0.00,,SKC,0.00,WeatherDisplay:10.37,2013-01-27 09:43:00,
2013-01-27 04:48:00,22.0,22.0,30.56,ESE,112,0.0,0.0,100,0.00,,SKC,0.00,WeatherDisplay:10.37,2013-01-27 09:48:00,
2013-01-27 04:53:00,22.0,22.0,30.56,ESE,112,0.0,0.0,100,0.00,,SKC,0.00,WeatherDisplay:10.37,2013-01-27 09:53:00,
2013-01-27 04:58:00,22.0,22.0,30.57,ESE,112,1.1,1.1,100,0.00,,SKC,0.00,WeatherDisplay:10.37,2013-01-27 09:58:00,
2013-01-27 05:03:00,22.0,22.0,30.57,ESE,112,0.0,0.0,100,0.00,,SKC,0.00,WeatherDisplay:10.37,2013-01-27 10:03:00,
2013-01-27 05:08:00,22.0,22.0,30.57,ESE,112,1.1,1.1,100,0.00,,SKC,0.00,WeatherDisplay:10.37,2013-01-27 10:08:00,
2013-01-27 05:13:00,22.0,22.0,30.57,ESE,112,0.0,0.0,100,0.00,,SKC,0.00,WeatherDisplay:10.37,2013-01-27 10:13:00,
2013-01-27 05:18:00,22.0,22.0,30.56,ESE,112,3.5,3.5,100,0.00,,SKC,0.00,WeatherDisplay:10.37,2013-01-27 10:18:00,
2013-01-27 05:23:00,22.0,22.0,30.56,ESE,112,2.3,2.3,100,0.00,,SKC,0.00,WeatherDisplay:10.37,2013-01-27 10:23:00,
2013-01-27 05:28:00,22.0,22.0,30.56,ESE,112,2.3,2.3,100,0.00,,SKC,0.00,WeatherDisplay:10.37,2013-01-27 10:28:00,
2013-01-27 05:33:00,22.0,22.0,30.56,NNE,22,3.5,3.5,100,0.00,,SKC,0.00,WeatherDisplay:10.37,2013-01-27 10:33:00,
2013-01-27 05:38:00,22.0,22.0,30.57,NNE,22,2.3,2.3,100,0.00,,SKC,0.00,WeatherDisplay:10.37,2013-01-27 10:38:00,
2013-01-27 05:43:00,22.0,22.0,30.57,NNE,22,2.3,2.3,100,0.00,,SKC,0.00,WeatherDisplay:10.37,2013-01-27 10:43:00,
2013-01-27 05:48:00,22.0,22.0,30.57,NNE,22,2.3,2.3,100,0.00,,SKC,0.00,WeatherDisplay:10.37,2013-01-27 10:48:00,
2013-01-27 05:53:00,22.0,22.0,30.57,NNE,22,2.3,2.3,100,0.00,,SKC,0.00,WeatherDisplay:10.37,2013-01-27 10:53:00,
2013-01-27 05:58:00,22.0,22.0,30.57,NNE,22,3.5,3.5,100,0.00,,SKC,0.00,WeatherDisplay:10.37,2013-01-27 10:58:00,
2013-01-27 06:03:00,22.0,22.0,30.57,NNE,22,3.5,3.5,100,0.00,,SKC,0.00,WeatherDisplay:10.37,2013-01-27 11:03:00,
2013-01-27 06:08:00,22.0,22.0,30.58,NE,45,3.5,3.5,100,0.00,,SKC,0.00,WeatherDisplay:10.37,2013-01-27 11:08:00,
2013-01-27 06:13:00,22.0,22.0,30.58,NE,45,3.5,3.5,100,0.00,,SKC,0.00,WeatherDisplay:10.37,2013-01-27 11:13:00,
2013-01-27 06:18:00,22.0,22.0,30.58,NE,45,4.0,4.0,100,0.00,,SKC,0.00,WeatherDisplay:10.37,2013-01-27 11:18:00,
2013-01-27 06:23:00,22.0,22.0,30.58,NNE,22,4.6,4.6,100,0.00,,SKC,0.00,WeatherDisplay:10.37,2013-01-27 11:23:00,
2013-01-27 06:28:00,22.0,22.0,30.58,NE,45,3.5,3.5,100,0.00,,SKC,0.00,WeatherDisplay:10.37,2013-01-27 11:28:00,
2013-01-27 06:33:00,22.0,22.0,30.58,ENE,67,3.5,3.5,100,0.00,,SKC,0.00,WeatherDisplay:10.37,2013-01-27 11:33:00,
2013-01-27 06:38:00,22.0,22.0,30.59,ENE,67,0.0,0.0,100,0.00,,SKC,0.00,WeatherDisplay:10.37,2013-01-27 11:38:00,
2013-01-27 06:43:00,22.0,22.0,30.59,ENE,67,3.5,3.5,100,0.00,,SKC,0.00,WeatherDisplay:10.37,2013-01-27 11:43:00,
2013-01-27 06:48:00,22.0,22.0,30.59,ESE,112,3.0,3.0,100,0.00,,SKC,0.00,WeatherDisplay:10.37,2013-01-27 11:48:00,
2013-01-27 06:53:00,22.0,22.0,30.59,ESE,112,3.5,3.5,100,0.00,,SKC,0.00,WeatherDisplay:10.37,2013-01-27 11:53:00,
2013-01-27 06:58:00,22.0,22.0,30.60,ESE,112,2.3,2.3,100,0.00,,SKC,0.00,WeatherDisplay:10.37,2013-01-27 11:58:00,
2013-01-27 07:03:00,22.0,22.0,30.60,ESE,112,2.3,2.3,100,0.00,,SKC,0.00,WeatherDisplay:10.37,2013-01-27 12:03:00,
2013-01-27 07:08:00,22.0,22.0,30.60,East,90,3.5,3.5,100,0.00,,SKC,0.00,WeatherDisplay:10.37,2013-01-27 12:08:00,
2013-01-27 07:13:00,22.0,22.0,30.60,East,90,1.1,1.1,100,0.00,,SKC,0.00,WeatherDisplay:10.37,2013-01-27 12:13:00,
2013-01-27 07:18:00,22.0,22.0,30.60,ESE,112,4.0,4.0,100,0.00,,SKC,0.00,WeatherDisplay:10.37,2013-01-27 12:18:00,
2013-01-27 07:23:00,22.0,22.0,30.60,NE,45,4.0,4.0,100,0.00,,SKC,0.00,WeatherDisplay:10.37,2013-01-27 12:23:00,
2013-01-27 07:28:00,22.0,22.0,30.61,East,90,3.5,3.5,100,0.00,,SKC,0.00,WeatherDisplay:10.37,2013-01-27 12:28:00,
2013-01-27 07:33:00,22.0,22.0,30.61,ENE,67,2.3,2.3,100,0.00,,SKC,0.00,WeatherDisplay:10.37,2013-01-27 12:33:00,
2013-01-27 07:38:00,23.0,23.0,30.62,NNE,22,4.6,4.6,100,0.00,,SKC,0.00,WeatherDisplay:10.37,2013-01-27 12:38:00,
2013-01-27 07:43:00,22.0,22.0,30.62,NE,45,4.6,4.6,100,0.00,,SKC,0.00,WeatherDisplay:10.37,2013-01-27 12:43:00,
2013-01-27 07:48:00,22.0,22.0,30.62,NNE,22,3.5,3.5,100,0.00,,SKC,0.00,WeatherDisplay:10.37,2013-01-27 12:48:00,
2013-01-27 07:53:00,22.0,22.0,30.63,NNE,22,4.6,4.6,100,0.00,,SKC,0.00,WeatherDisplay:10.37,2013-01-27 12:53:00,
2013-01-27 07:58:00,23.0,23.0,30.63,ENE,67,4.6,4.6,100,0.00,,SKC,0.00,WeatherDisplay:10.37,2013-01-27 12:58:00,
2013-01-27 08:03:00,22.0,22.0,30.63,East,90,4.0,4.0,100,0.00,,SKC,0.00,WeatherDisplay:10.37,2013-01-27 13:03:00,
2013-01-27 08:08:00,23.0,23.0,30.64,ENE,67,4.0,4.0,100,0.00,,SKC,0.00,WeatherDisplay:10.37,2013-01-27 13:08:00,
2013-01-27 08:13:00,22.0,22.0,30.64,ENE,67,3.5,3.5,100,0.00,,SKC,0.00,WeatherDisplay:10.37,2013-01-27 13:13:00,
2013-01-27 08:18:00,23.0,23.0,30.64,NNE,22,3.5,3.5,100,0.00,,SKC,0.00,WeatherDisplay:10.37,2013-01-27 13:18:00,
2013-01-27 08:23:00,23.0,23.0,30.64,NE,45,3.5,3.6,100,0.00,,SKC,0.00,WeatherDisplay:10.37,2013-01-27 13:23:00,
2013-01-27 08:28:00,23.0,23.0,30.64,NE,45,3.5,3.5,100,0.00,,SKC,0.00,WeatherDisplay:10.37,2013-01-27 13:28:00,
2013-01-27 08:33:00,23.0,23.0,30.64,NE,45,3.5,3.5,100,0.00,,SKC,0.00,WeatherDisplay:10.37,2013-01-27 13:33:00,
2013-01-27 08:38:00,23.0,23.0,30.65,NE,45,3.5,3.5,100,0.00,,SKC,0.00,WeatherDisplay:10.37,2013-01-27 13:38:00,
2013-01-27 08:43:00,23.0,23.0,30.65,ESE,112,3.5,3.5,100,0.00,,SKC,0.00,WeatherDisplay:10.37,2013-01-27 13:43:00,
2013-01-27 08:48:00,24.0,24.0,30.65,NE,45,3.5,3.5,100,0.00,,SKC,0.00,WeatherDisplay:10.37,2013-01-27 13:48:00,
2013-01-27 08:53:00,24.0,24.0,30.65,NNE,22,2.3,2.3,100,0.00,,SKC,0.00,WeatherDisplay:10.37,2013-01-27 13:53:00,
2013-01-27 08:58:00,24.0,24.0,30.65,East,90,2.0,2.0,100,0.00,,SKC,0.00,WeatherDisplay:10.37,2013-01-27 13:58:00,
2013-01-27 09:03:00,25.0,25.0,30.65,ESE,112,2.3,2.3,100,0.00,,SKC,0.00,WeatherDisplay:10.37,2013-01-27 14:03:00,
2013-01-27 09:08:00,25.0,25.0,30.64,ESE,112,3.5,3.5,100,0.00,,SKC,0.00,WeatherDisplay:10.37,2013-01-27 14:08:00,
2013-01-27 09:13:00,25.0,25.0,30.64,NNE,22,4.0,4.0,100,0.00,,SKC,0.00,WeatherDisplay:10.37,2013-01-27 14:13:00,
2013-01-27 09:18:00,25.0,25.0,30.64,NE,45,5.0,5.0,100,0.00,,SKC,0.00,WeatherDisplay:10.37,2013-01-27 14:18:00,
2013-01-27 09:23:00,25.0,25.0,30.64,East,90,4.6,4.6,100,0.00,,SKC,0.00,WeatherDisplay:10.37,2013-01-27 14:23:00,
2013-01-27 09:28:00,26.0,26.0,30.63,ENE,67,3.5,3.5,100,0.00,,SKC,0.00,WeatherDisplay:10.37,2013-01-27 14:28:00,
2013-01-27 09:33:00,26.0,26.0,30.63,NE,45,3.5,3.5,100,0.00,,SKC,0.00,WeatherDisplay:10.37,2013-01-27 14:33:00,
2013-01-27 09:38:00,26.0,26.0,30.63,ENE,67,4.6,4.6,100,0.00,,SKC,0.00,WeatherDisplay:10.37,2013-01-27 14:38:00,
2013-01-27 09:43:00,26.0,26.0,30.63,NNE,22,4.6,4.9,100,0.00,,SKC,0.00,WeatherDisplay:10.37,2013-01-27 14:43:00,
2013-01-27 09:48:00,27.0,27.0,30.64,NE,45,4.0,4.0,100,0.00,,SKC,0.00,WeatherDisplay:10.37,2013-01-27 14:48:00,
2013-01-27 09:53:00,27.0,27.0,30.64,SSE,157,5.8,5.8,100,0.00,,SKC,0.00,WeatherDisplay:10.37,2013-01-27 14:53:00,
2013-01-27 09:58:00,27.0,27.0,30.64,ESE,112,6.9,6.9,100,0.00,,SKC,0.00,WeatherDisplay:10.37,2013-01-27 14:58:00,
2013-01-27 10:03:00,28.0,28.0,30.64,ESE,112,3.5,3.5,100,0.00,,SKC,0.00,WeatherDisplay:10.37,2013-01-27 15:03:00,
2013-01-27 10:08:00,28.0,28.0,30.64,SE,135,5.0,5.0,100,0.00,,SKC,0.00,WeatherDisplay:10.37,2013-01-27 15:08:00,
2013-01-27 10:13:00,29.0,29.0,30.64,ESE,112,5.8,5.8,100,0.00,,SKC,0.00,WeatherDisplay:10.37,2013-01-27 15:13:00,
2013-01-27 10:18:00,29.0,29.0,30.63,SE,135,5.8,5.8,100,0.00,,SKC,0.00,WeatherDisplay:10.37,2013-01-27 15:18:00,
2013-01-27 10:23:00,30.0,30.0,30.63,NE,45,5.0,5.0,100,0.00,,SKC,0.00,WeatherDisplay:10.37,2013-01-27 15:23:00,
2013-01-27 10:28:00,29.0,29.0,30.63,East,90,6.0,6.0,100,0.00,,SKC,0.00,WeatherDisplay:10.37,2013-01-27 15:28:00,
2013-01-27 10:33:00,29.0,29.0,30.63,ENE,67,6.9,6.9,100,0.00,,SKC,0.00,WeatherDisplay:10.37,2013-01-27 15:33:00,
2013-01-27 10:38:00,29.0,29.0,30.63,NNE,22,5.8,5.8,100,0.00,,SKC,0.00,WeatherDisplay:10.37,2013-01-27 15:38:00,
2013-01-27 10:43:00,30.0,30.0,30.63,SE,135,9.0,9.0,100,0.00,,SKC,0.00,WeatherDisplay:10.37,2013-01-27 15:43:00,
2013-01-27 10:48:00,30.0,30.0,30.63,NNE,22,5.0,5.0,100,0.00,,SKC,0.00,WeatherDisplay:10.37,2013-01-27 15:48:00,
2013-01-27 10:53:00,30.0,30.0,30.63,NNE,22,5.8,5.8,100,0.00,,SKC,0.00,WeatherDisplay:10.37,2013-01-27 15:53:00,
2013-01-27 11:04:00,32.0,30.2,30.63,SE,135,4.6,0.0,93,0.00,CLR,SKC,0.00,WeatherDisplay:10.37,2013-01-27 16:04:00,
2013-01-27 11:09:00,33.0,32.8,30.62,NE,45,5.0,5.0,99,0.00,,SKC,0.00,WeatherDisplay:10.37,2013-01-27 16:09:00,
2013-01-27 11:14:00,33.0,32.8,30.62,SW,225,4.6,4.6,99,0.00,CLR,SKC,0.00,WeatherDisplay:10.37,2013-01-27 16:14:00,
2013-01-27 11:19:00,34.0,30.3,30.62,ESE,112,4.6,4.6,86,0.00,CLR,SKC,0.00,WeatherDisplay:10.37,2013-01-27 16:19:00,
2013-01-27 11:24:00,33.0,30.7,30.62,South,180,5.8,5.8,91,0.00,CLR,SKC,0.00,WeatherDisplay:10.37,2013-01-27 16:24:00,
2013-01-27 11:29:00,33.0,28.1,30.61,ESE,112,10.4,10.4,82,0.00,CLR,SKC,0.00,WeatherDisplay:10.37,2013-01-27 16:29:00,
2013-01-27 11:34:00,33.0,28.7,30.61,ESE,112,9.2,9.2,84,0.00,CLR,SKC,0.00,WeatherDisplay:10.37,2013-01-27 16:34:00,
2013-01-27 11:39:00,34.0,29.1,30.61,NE,45,9.2,9.2,82,0.00,CLR,SKC,0.00,WeatherDisplay:10.37,2013-01-27 16:39:00,
2013-01-27 11:44:00,33.0,27.8,30.61,ESE,112,10.4,10.4,81,0.00,CLR,SKC,0.00,WeatherDisplay:10.37,2013-01-27 16:44:00,
2013-01-27 11:49:00,34.0,29.1,30.60,East,90,8.1,8.1,82,0.00,CLR,SKC,0.00,WeatherDisplay:10.37,2013-01-27 16:49:00,
2013-01-27 11:54:00,34.0,29.1,30.60,ENE,67,8.0,8.0,82,0.00,CLR,SKC,0.00,WeatherDisplay:10.37,2013-01-27 16:54:00,
2013-01-27 11:59:00,33.0,27.8,30.60,East,90,10.4,10.4,81,0.00,CLR,SKC,0.00,WeatherDisplay:10.37,2013-01-27 16:59:00,
2013-01-27 12:04:00,33.0,27.8,30.60,ESE,112,9.2,9.2,81,0.00,CLR,SKC,0.00,WeatherDisplay:10.37,2013-01-27 17:04:00,
2013-01-27 12:09:00,33.0,28.1,30.61,ENE,67,5.8,5.8,82,0.00,CLR,SKC,0.00,WeatherDisplay:10.37,2013-01-27 17:09:00,
2013-01-27 12:14:00,34.0,29.1,30.61,SSE,157,6.9,6.9,82,0.00,CLR,SKC,0.00,WeatherDisplay:10.37,2013-01-27 17:14:00,
2013-01-27 12:19:00,35.0,29.8,30.60,ESE,112,5.0,5.0,81,0.00,CLR,SKC,0.00,WeatherDisplay:10.37,2013-01-27 17:19:00,
2013-01-27 12:24:00,36.0,30.1,30.60,SSE,157,8.1,8.1,79,0.00,CLR,SKC,0.00,WeatherDisplay:10.37,2013-01-27 17:24:00,
2013-01-27 12:29:00,36.0,30.1,30.59,SSE,157,4.6,4.6,79,0.00,CLR,SKC,0.00,WeatherDisplay:10.37,2013-01-27 17:29:00,
2013-01-27 12:34:00,36.0,30.1,30.59,SE,135,8.1,8.1,79,0.02,RA,SKC,0.02,WeatherDisplay:10.37,2013-01-27 17:34:00,
2013-01-27 12:39:00,36.0,29.5,30.57,ESE,112,7.0,7.0,77,0.02,RA,SKC,0.02,WeatherDisplay:10.37,2013-01-27 17:39:00,
2013-01-27 12:44:00,35.0,29.5,30.57,SE,135,8.1,8.1,80,0.02,,SKC,0.02,WeatherDisplay:10.37,2013-01-27 17:44:00,
2013-01-27 12:49:00,34.0,28.8,30.57,SE,135,6.9,6.9,81,0.02,CLR,SKC,0.02,WeatherDisplay:10.37,2013-01-27 17:49:00,
2013-01-27 12:54:00,35.0,30.1,30.57,SSE,157,4.6,4.6,82,0.02,CLR,SKC,0.02,WeatherDisplay:10.37,2013-01-27 17:54:00,
2013-01-27 12:59:00,35.0,29.1,30.57,SSE,157,8.1,8.1,79,0.02,CLR,SKC,0.02,WeatherDisplay:10.37,2013-01-27 17:59:00,
2013-01-27 13:04:00,36.0,30.4,30.57,SSE,157,8.1,8.1,80,0.02,CLR,SKC,0.02,WeatherDisplay:10.37,2013-01-27 18:04:00,
2013-01-27 13:09:00,36.0,29.5,30.56,SE,135,10.4,10.4,77,0.02,CLR,SKC,0.02,WeatherDisplay:10.37,2013-01-27 18:09:00,
2013-01-27 13:14:00,35.0,28.8,30.56,WSW,247,3.5,0.0,78,0.02,CLR,SKC,0.02,WeatherDisplay:10.37,2013-01-27 18:14:00,
2013-01-27 13:19:00,36.0,29.8,30.56,WNW,292,0.0,0.0,78,0.02,CLR,SKC,0.02,WeatherDisplay:10.37,2013-01-27 18:19:00,
2013-01-27 13:24:00,35.0,28.8,30.56,East,90,9.2,9.2,78,0.04,RA,SKC,0.04,WeatherDisplay:10.37,2013-01-27 18:24:00,
2013-01-27 13:29:00,36.0,29.8,30.55,SSE,157,7.0,7.0,78,0.04,RA,SKC,0.04,WeatherDisplay:10.37,2013-01-27 18:29:00,
2013-01-27 13:34:00,36.0,29.5,30.55,SSE,157,8.0,8.0,77,0.02,,SKC,0.04,WeatherDisplay:10.37,2013-01-27 18:34:00,
2013-01-27 13:39:00,35.0,29.1,30.54,SE,135,10.4,10.4,79,0.02,CLR,SKC,0.04,WeatherDisplay:10.37,2013-01-27 18:39:00,
2013-01-27 13:44:00,35.0,28.5,30.54,SE,135,6.9,6.9,77,0.02,CLR,SKC,0.04,WeatherDisplay:10.37,2013-01-27 18:44:00,
2013-01-27 13:49:00,36.0,29.2,30.54,ESE,112,6.0,6.0,76,0.02,CLR,SKC,0.04,WeatherDisplay:10.37,2013-01-27 18:49:00,
2013-01-27 13:54:00,36.0,28.8,30.54,SSE,157,7.0,7.0,75,0.02,CLR,SKC,0.04,WeatherDisplay:10.37,2013-01-27 18:54:00,
2013-01-27 13:59:00,36.0,29.2,30.54,SE,135,4.6,4.6,76,0.02,CLR,SKC,0.04,WeatherDisplay:10.37,2013-01-27 18:59:00,
2013-01-27 14:04:00,37.0,30.1,30.54,SSE,157,4.6,4.6,76,0.02,CLR,SKC,0.04,WeatherDisplay:10.37,2013-01-27 19:04:00,
2013-01-27 14:09:00,38.0,30.1,30.54,South,180,1.1,1.1,73,0.02,CLR,SKC,0.04,WeatherDisplay:10.37,2013-01-27 19:09:00,
2013-01-27 14:14:00,38.0,30.1,30.54,SSW,202,3.5,3.5,73,0.03,RA,SKC,0.05,WeatherDisplay:10.37,2013-01-27 19:14:00,
2013-01-27 14:19:00,38.0,30.1,30.54,West,270,3.5,3.5,73,0.03,RA,SKC,0.05,WeatherDisplay:10.37,2013-01-27 19:19:00,
2013-01-27 14:24:00,37.0,30.1,30.54,ESE,112,5.8,5.8,76,0.01,,SKC,0.05,WeatherDisplay:10.37,2013-01-27 19:24:00,
2013-01-27 14:29:00,37.0,29.8,30.55,SSE,157,3.5,3.5,75,0.01,CLR,SKC,0.05,WeatherDisplay:10.37,2013-01-27 19:29:00,
2013-01-27 14:34:00,37.0,30.1,30.55,SE,135,5.8,5.8,76,0.01,CLR,SKC,0.05,WeatherDisplay:10.37,2013-01-27 19:34:00,
2013-01-27 14:39:00,38.0,30.1,30.55,SSE,157,3.5,3.5,73,0.01,CLR,SKC,0.05,WeatherDisplay:10.37,2013-01-27 19:39:00,
2013-01-27 14:44:00,38.0,29.4,30.55,SSE,157,3.5,3.5,71,0.01,CLR,SKC,0.05,WeatherDisplay:10.37,2013-01-27 19:44:00,
2013-01-27 14:49:00,38.0,29.4,30.54,SSE,157,3.5,3.5,71,0.01,CLR,SKC,0.05,WeatherDisplay:10.37,2013-01-27 19:49:00,
2013-01-27 14:54:00,38.0,29.1,30.54,SSE,157,3.5,3.5,70,0.01,CLR,SKC,0.05,WeatherDisplay:10.37,2013-01-27 19:54:00,
2013-01-27 14:59:00,39.0,29.7,30.54,SSE,157,4.6,4.6,69,0.02,RA,SKC,0.06,WeatherDisplay:10.37,2013-01-27 19:59:00,
2013-01-27 15:04:00,38.0,28.7,30.54,South,180,3.5,3.5,69,0.02,RA,SKC,0.06,WeatherDisplay:10.37,2013-01-27 20:04:00,
2013-01-27 15:09:00,38.0,29.1,30.54,South,180,3.5,3.5,70,0.02,CLR,SKC,0.06,WeatherDisplay:10.37,2013-01-27 20:09:00,
2013-01-27 15:14:00,38.0,29.1,30.54,South,180,3.5,3.5,70,0.01,CLR,SKC,0.06,WeatherDisplay:10.37,2013-01-27 20:14:00,
2013-01-27 15:19:00,38.0,29.4,30.54,SSE,157,8.1,8.1,71,0.01,CLR,SKC,0.06,WeatherDisplay:10.37,2013-01-27 20:19:00,
2013-01-27 15:24:00,38.0,30.1,30.54,SSE,157,4.6,4.6,73,0.01,CLR,SKC,0.06,WeatherDisplay:10.37,2013-01-27 20:24:00,
2013-01-27 15:29:00,39.0,30.0,30.54,South,180,4.6,4.6,70,0.01,CLR,SKC,0.06,WeatherDisplay:10.37,2013-01-27 20:29:00,
2013-01-27 15:34:00,38.0,29.1,30.54,SSE,157,3.5,3.5,70,0.01,CLR,SKC,0.06,WeatherDisplay:10.37,2013-01-27 20:34:00,
2013-01-27 15:39:00,39.0,30.0,30.54,SSE,157,2.3,2.3,70,0.01,CLR,SKC,0.06,WeatherDisplay:10.37,2013-01-27 20:39:00,
2013-01-27 15:44:00,39.0,29.7,30.54,SSE,157,3.5,3.5,69,0.01,CLR,SKC,0.06,WeatherDisplay:10.37,2013-01-27 20:44:00,
2013-01-27 15:49:00,39.0,29.3,30.54,SE,135,4.0,4.0,68,0.01,CLR,SKC,0.06,WeatherDisplay:10.37,2013-01-27 20:49:00,
2013-01-27 15:54:00,38.0,29.1,30.54,SE,135,1.1,1.1,70,0.01,CLR,SKC,0.06,WeatherDisplay:10.37,2013-01-27 20:54:00,
2013-01-27 15:59:00,39.0,30.0,30.54,SSE,157,3.5,3.5,70,0.00,CLR,SKC,0.06,WeatherDisplay:10.37,2013-01-27 20:59:00,
2013-01-27 16:04:00,38.0,29.1,30.54,SSE,157,3.5,3.5,70,0.00,CLR,SKC,0.06,WeatherDisplay:10.37,2013-01-27 21:04:00,
2013-01-27 16:09:00,38.0,29.1,30.54,SSE,157,3.5,3.5,70,0.00,CLR,SKC,0.06,WeatherDisplay:10.37,2013-01-27 21:09:00,
2013-01-27 16:14:00,38.0,29.4,30.54,SE,135,3.5,3.5,71,0.00,CLR,SKC,0.06,WeatherDisplay:10.37,2013-01-27 21:14:00,
2013-01-27 16:19:00,38.0,29.8,30.55,SE,135,1.1,0.0,72,0.00,CLR,SKC,0.06,WeatherDisplay:10.37,2013-01-27 21:19:00,
2013-01-27 16:24:00,38.0,29.8,30.55,SSE,157,0.0,0.0,72,0.00,CLR,SKC,0.06,WeatherDisplay:10.37,2013-01-27 21:24:00,
2013-01-27 16:29:00,38.0,29.4,30.54,SSE,157,4.6,4.6,71,0.00,CLR,SKC,0.06,WeatherDisplay:10.37,2013-01-27 21:29:00,
2013-01-27 16:34:00,37.0,29.5,30.54,SE,135,4.6,4.6,74,0.00,CLR,SKC,0.06,WeatherDisplay:10.37,2013-01-27 21:34:00,
2013-01-27 16:39:00,37.0,29.5,30.54,SSE,157,3.5,3.5,74,0.00,CLR,SKC,0.06,WeatherDisplay:10.37,2013-01-27 21:39:00,
2013-01-27 16:44:00,37.0,29.5,30.54,SSE,157,0.0,0.0,74,0.00,CLR,SKC,0.06,WeatherDisplay:10.37,2013-01-27 21:44:00,
2013-01-27 16:49:00,38.0,29.4,30.54,SSE,157,2.3,2.3,71,0.00,CLR,SKC,0.06,WeatherDisplay:10.37,2013-01-27 21:49:00,
2013-01-27 16:54:00,37.0,29.1,30.54,SSE,157,4.0,4.0,73,0.00,CLR,SKC,0.06,WeatherDisplay:10.37,2013-01-27 21:54:00,
2013-01-27 16:59:00,37.0,28.8,30.55,SSE,157,3.5,3.5,72,0.00,CLR,SKC,0.06,WeatherDisplay:10.37,2013-01-27 21:59:00,
2013-01-27 17:04:00,37.0,29.5,30.55,SSE,157,4.0,4.0,74,0.00,CLR,SKC,0.06,WeatherDisplay:10.37,2013-01-27 22:04:00,
2013-01-27 17:09:00,37.0,29.5,30.56,SSE,157,1.1,0.0,74,0.00,CLR,SKC,0.06,WeatherDisplay:10.37,2013-01-27 22:09:00,
2013-01-27 17:14:00,36.0,28.8,30.56,SSE,157,0.0,0.0,75,0.00,CLR,SKC,0.06,WeatherDisplay:10.37,2013-01-27 22:14:00,
2013-01-27 17:19:00,36.0,29.2,30.57,SSE,157,1.1,1.1,76,0.00,CLR,SKC,0.06,WeatherDisplay:10.37,2013-01-27 22:19:00,
2013-01-27 17:24:00,35.0,28.2,30.57,SSE,157,0.0,0.0,76,0.00,CLR,SKC,0.06,WeatherDisplay:10.37,2013-01-27 22:24:00,
2013-01-27 17:29:00,35.0,28.2,30.58,SSE,157,0.0,0.0,76,0.00,CLR,SKC,0.06,WeatherDisplay:10.37,2013-01-27 22:29:00,
2013-01-27 17:34:00,34.0,27.5,30.58,SSE,157,0.0,0.0,77,0.00,CLR,SKC,0.06,WeatherDisplay:10.37,2013-01-27 22:34:00,
2013-01-27 17:39:00,34.0,27.9,30.58,SSE,157,0.0,0.0,78,0.00,CLR,SKC,0.06,WeatherDisplay:10.37,2013-01-27 22:39:00,
2013-01-27 17:44:00,34.0,28.2,30.58,SSE,157,0.0,0.0,79,0.00,CLR,SKC,0.06,WeatherDisplay:10.37,2013-01-27 22:44:00,
2013-01-27 17:49:00,34.0,28.2,30.59,SSE,157,0.0,0.0,79,0.00,CLR,SKC,0.06,WeatherDisplay:10.37,2013-01-27 22:49:00,
2013-01-27 17:54:00,34.0,29.4,30.59,SSE,157,0.0,0.0,83,0.00,CLR,SKC,0.06,WeatherDisplay:10.37,2013-01-27 22:54:00,
2013-01-27 17:59:00,34.0,28.8,30.59,SSE,157,0.0,0.0,81,0.00,CLR,SKC,0.06,WeatherDisplay:10.37,2013-01-27 22:59:00,
2013-01-27 18:04:00,33.0,28.7,30.59,SSE,157,0.0,0.0,84,0.00,CLR,SKC,0.06,WeatherDisplay:10.37,2013-01-27 23:04:00,
2013-01-27 18:09:00,33.0,28.4,30.60,SSE,157,0.0,0.0,83,0.00,CLR,SKC,0.06,WeatherDisplay:10.37,2013-01-27 23:09:00,
2013-01-27 18:14:00,32.0,28.0,30.60,SSE,157,0.0,0.0,85,0.00,CLR,SKC,0.06,WeatherDisplay:10.37,2013-01-27 23:14:00,
2013-01-27 18:19:00,33.0,29.8,30.60,SSE,157,0.0,0.0,88,0.00,CLR,SKC,0.06,WeatherDisplay:10.37,2013-01-27 23:19:00,
2013-01-27 18:24:00,33.0,30.7,30.60,SSE,157,3.5,3.5,91,0.00,CLR,SKC,0.06,WeatherDisplay:10.37,2013-01-27 23:24:00,
2013-01-27 18:29:00,33.0,30.1,30.59,SSE,157,2.3,2.3,89,0.00,CLR,SKC,0.06,WeatherDisplay:10.37,2013-01-27 23:29:00,
2013-01-27 18:34:00,33.0,30.1,30.59,SSE,157,0.0,0.0,89,0.00,CLR,SKC,0.06,WeatherDisplay:10.37,2013-01-27 23:34:00,
2013-01-27 18:39:00,33.0,30.4,30.59,SSE,157,2.3,2.3,90,0.00,CLR,SKC,0.06,WeatherDisplay:10.37,2013-01-27 23:39:00,
2013-01-27 18:44:00,32.0,29.4,30.59,SSE,157,3.5,3.5,90,0.00,CLR,SKC,0.06,WeatherDisplay:10.37,2013-01-27 23:44:00,
2013-01-27 18:49:00,33.0,29.6,30.58,SSE,157,2.3,2.3,87,0.00,CLR,SKC,0.06,WeatherDisplay:10.37,2013-01-27 23:49:00,
2013-01-27 18:54:00,32.0,29.4,30.58,SSE,157,3.5,3.5,90,0.00,CLR,SKC,0.06,WeatherDisplay:10.37,2013-01-27 23:54:00,
2013-01-27 18:59:00,33.0,29.6,30.58,SSE,157,3.5,3.5,87,0.00,CLR,SKC,0.06,WeatherDisplay:10.37,2013-01-27 23:59:00,
2013-01-27 19:04:00,33.0,29.6,30.58,SSE,157,0.0,0.0,87,0.00,CLR,SKC,0.06,WeatherDisplay:10.37,2013-01-28 00:04:00,
2013-01-27 19:09:00,33.0,29.6,30.59,SSE,157,2.3,2.3,87,0.00,CLR,SKC,0.06,WeatherDisplay:10.37,2013-01-28 00:09:00,
2013-01-27 19:14:00,33.0,29.6,30.59,SSE,157,0.0,0.0,87,0.00,CLR,SKC,0.06,WeatherDisplay:10.37,2013-01-28 00:14:00,
2013-01-27 19:19:00,33.0,29.6,30.59,SSE,157,0.0,0.0,87,0.00,CLR,SKC,0.06,WeatherDisplay:10.37,2013-01-28 00:19:00,
2013-01-27 19:24:00,32.0,29.1,30.59,SSE,157,0.0,0.0,89,0.00,CLR,SKC,0.06,WeatherDisplay:10.37,2013-01-28 00:24:00,
2013-01-27 19:29:00,32.0,29.1,30.60,SSE,157,0.0,0.0,89,0.00,CLR,SKC,0.06,WeatherDisplay:10.37,2013-01-28 00:29:00,
2013-01-27 19:34:00,32.0,29.7,30.60,SSE,157,0.0,0.0,91,0.00,CLR,SKC,0.06,WeatherDisplay:10.37,2013-01-28 00:34:00,
2013-01-27 19:39:00,32.0,29.7,30.60,SSE,157,0.0,0.0,91,0.00,CLR,SKC,0.06,WeatherDisplay:10.37,2013-01-28 00:39:00,
2013-01-27 19:44:00,31.0,28.7,30.60,SSE,157,0.0,0.0,91,0.00,CLR,SKC,0.06,WeatherDisplay:10.37,2013-01-28 00:44:00,
2013-01-27 19:49:00,31.0,28.7,30.60,SSE,157,0.0,0.0,91,0.00,CLR,SKC,0.06,WeatherDisplay:10.37,2013-01-28 00:49:00,
2013-01-27 19:54:00,30.0,28.2,30.60,SSE,157,2.3,2.3,93,0.00,CLR,SKC,0.06,WeatherDisplay:10.37,2013-01-28 00:54:00,
2013-01-27 19:59:00,31.0,28.9,30.59,SSE,157,3.5,3.5,92,0.00,CLR,SKC,0.06,WeatherDisplay:10.37,2013-01-28 00:59:00,
2013-01-27 20:04:00,30.0,28.7,30.59,SSE,157,3.5,3.5,95,0.00,CLR,SKC,0.06,WeatherDisplay:10.37,2013-01-28 01:04:00,
2013-01-27 20:09:00,31.0,29.7,30.59,SSE,157,3.5,3.5,95,0.00,CLR,SKC,0.06,WeatherDisplay:10.37,2013-01-28 01:09:00,
2013-01-27 20:14:00,30.0,29.0,30.59,SSE,157,3.5,3.5,96,0.00,CLR,SKC,0.06,WeatherDisplay:10.37,2013-01-28 01:14:00,
2013-01-27 20:19:00,31.0,29.7,30.59,SSE,157,3.5,3.5,95,0.00,CLR,SKC,0.06,WeatherDisplay:10.37,2013-01-28 01:19:00,
2013-01-27 20:24:00,31.0,29.5,30.59,ESE,112,2.3,2.3,94,0.00,CLR,SKC,0.06,WeatherDisplay:10.37,2013-01-28 01:24:00,
2013-01-27 20:29:00,31.0,29.7,30.59,ESE,112,2.3,2.3,95,0.00,CLR,SKC,0.06,WeatherDisplay:10.37,2013-01-28 01:29:00,
2013-01-27 20:34:00,30.0,29.3,30.59,ESE,112,0.0,0.0,97,0.00,CLR,SKC,0.06,WeatherDisplay:10.37,2013-01-28 01:34:00,
2013-01-27 20:39:00,29.0,28.0,30.59,ESE,112,0.0,0.0,96,0.00,CLR,SKC,0.06,WeatherDisplay:10.37,2013-01-28 01:39:00,
2013-01-27 20:44:00,29.0,27.7,30.59,ESE,112,0.0,0.0,95,0.00,CLR,SKC,0.06,WeatherDisplay:10.37,2013-01-28 01:44:00,
2013-01-27 20:49:00,29.0,28.3,30.60,ESE,112,0.0,0.0,97,0.00,CLR,SKC,0.06,WeatherDisplay:10.37,2013-01-28 01:49:00,
2013-01-27 20:54:00,28.0,27.5,30.60,ESE,112,0.0,0.0,98,0.00,CLR,SKC,0.06,WeatherDisplay:10.37,2013-01-28 01:54:00,
2013-01-27 20:59:00,29.0,29.0,30.62,ESE,112,0.0,0.0,100,0.00,,SKC,0.06,WeatherDisplay:10.37,2013-01-28 01:59:00,
2013-01-27 21:04:00,28.0,28.0,30.62,ESE,112,0.0,0.0,100,0.00,,SKC,0.06,WeatherDisplay:10.37,2013-01-28 02:04:00,
2013-01-27 21:09:00,29.0,29.0,30.62,ESE,112,0.0,0.0,100,0.00,,SKC,0.06,WeatherDisplay:10.37,2013-01-28 02:09:00,
2013-01-27 21:14:00,28.0,28.0,30.62,SE,135,3.5,3.5,100,0.00,,SKC,0.06,WeatherDisplay:10.37,2013-01-28 02:14:00,
2013-01-27 21:19:00,29.0,29.0,30.61,SE,135,2.3,2.3,100,0.00,,SKC,0.06,WeatherDisplay:10.37,2013-01-28 02:19:00,
2013-01-27 21:24:00,28.0,28.0,30.61,SE,135,2.3,2.3,100,0.00,,SKC,0.06,WeatherDisplay:10.37,2013-01-28 02:24:00,
2013-01-27 21:29:00,29.0,29.0,30.61,SSE,157,3.5,3.5,100,0.00,,SKC,0.06,WeatherDisplay:10.37,2013-01-28 02:29:00,
2013-01-27 21:34:00,29.0,29.0,30.61,SSE,157,3.5,3.5,100,0.00,,SKC,0.06,WeatherDisplay:10.37,2013-01-28 02:34:00,
2013-01-27 21:39:00,30.0,29.8,30.60,SSE,157,5.0,5.0,99,0.00,CLR,SKC,0.06,WeatherDisplay:10.37,2013-01-28 02:39:00,
2013-01-27 21:44:00,30.0,29.5,30.60,SSE,157,9.2,9.2,98,0.00,CLR,SKC,0.06,WeatherDisplay:10.37,2013-01-28 02:44:00,
2013-01-27 21:49:00,30.0,29.3,30.59,SSE,157,6.9,6.9,97,0.00,CLR,SKC,0.06,WeatherDisplay:10.37,2013-01-28 02:49:00,
2013-01-27 21:54:00,30.0,29.3,30.59,SSE,157,5.8,5.8,97,0.00,CLR,SKC,0.06,WeatherDisplay:10.37,2013-01-28 02:54:00,
2013-01-27 21:59:00,30.0,29.0,30.59,SSE,157,5.8,5.8,96,0.00,CLR,SKC,0.06,WeatherDisplay:10.37,2013-01-28 02:59:00,
2013-01-27 22:04:00,30.0,29.3,30.59,SSW,202,6.9,6.9,97,0.00,CLR,SKC,0.06,WeatherDisplay:10.37,2013-01-28 03:04:00,
2013-01-27 22:09:00,30.0,29.0,30.59,South,180,4.0,4.0,96,0.00,CLR,SKC,0.06,WeatherDisplay:10.37,2013-01-28 03:09:00,
2013-01-27 22:14:00,29.0,28.0,30.59,South,180,3.5,3.5,96,0.00,CLR,SKC,0.06,WeatherDisplay:10.37,2013-01-28 03:14:00,
2013-01-27 22:19:00,30.0,28.7,30.59,South,180,4.6,4.6,95,0.00,CLR,SKC,0.06,WeatherDisplay:10.37,2013-01-28 03:19:00,
2013-01-27 22:24:00,30.0,28.7,30.59,South,180,5.8,5.8,95,0.00,CLR,SKC,0.06,WeatherDisplay:10.37,2013-01-28 03:24:00,
2013-01-27 22:29:00,30.0,28.7,30.59,SSE,157,5.8,5.8,95,0.00,CLR,SKC,0.06,WeatherDisplay:10.37,2013-01-28 03:29:00,
2013-01-27 22:34:00,30.0,28.7,30.59,South,180,4.6,4.6,95,0.00,CLR,SKC,0.06,WeatherDisplay:10.37,2013-01-28 03:34:00,
2013-01-27 22:39:00,29.0,27.7,30.59,SSE,157,4.6,4.6,95,0.00,CLR,SKC,0.06,WeatherDisplay:10.37,2013-01-28 03:39:00,
2013-01-27 22:44:00,29.0,27.7,30.59,South,180,4.6,4.6,95,0.00,CLR,SKC,0.06,WeatherDisplay:10.37,2013-01-28 03:44:00,
2013-01-27 22:49:00,29.0,28.0,30.59,SSW,202,5.0,5.0,96,0.00,CLR,SKC,0.06,WeatherDisplay:10.37,2013-01-28 03:49:00,
2013-01-27 22:54:00,29.0,28.0,30.59,South,180,3.5,3.5,96,0.00,CLR,SKC,0.06,WeatherDisplay:10.37,2013-01-28 03:54:00,
2013-01-27 22:59:00,29.0,28.0,30.58,SSE,157,5.8,5.8,96,0.00,CLR,SKC,0.06,WeatherDisplay:10.37,2013-01-28 03:59:00,
2013-01-27 23:04:00,29.0,28.0,30.58,SSE,157,6.0,6.0,96,0.00,CLR,SKC,0.06,WeatherDisplay:10.37,2013-01-28 04:04:00,
2013-01-27 23:09:00,29.0,27.7,30.58,SSE,157,3.5,3.5,95,0.00,CLR,SKC,0.06,WeatherDisplay:10.37,2013-01-28 04:09:00,
2013-01-27 23:14:00,29.0,27.7,30.58,SE,135,3.5,3.5,95,0.00,CLR,SKC,0.06,WeatherDisplay:10.37,2013-01-28 04:14:00,
2013-01-27 23:19:00,29.0,27.7,30.58,SSE,157,4.6,4.6,95,0.00,CLR,SKC,0.06,WeatherDisplay:10.37,2013-01-28 04:19:00,
2013-01-27 23:24:00,29.0,28.0,30.58,SSE,157,2.3,2.3,96,0.00,CLR,SKC,0.06,WeatherDisplay:10.37,2013-01-28 04:24:00,
2013-01-27 23:29:00,29.0,28.0,30.58,SSE,157,3.5,3.5,96,0.00,CLR,SKC,0.06,WeatherDisplay:10.37,2013-01-28 04:29:00,
2013-01-27 23:34:00,29.0,28.3,30.58,SSE,157,3.5,3.5,97,0.00,CLR,SKC,0.06,WeatherDisplay:10.37,2013-01-28 04:34:00,
2013-01-27 23:39:00,28.0,27.0,30.58,SSE,157,0.0,0.0,96,0.00,CLR,SKC,0.06,WeatherDisplay:10.37,2013-01-28 04:39:00,
2013-01-27 23:44:00,28.0,27.0,30.58,SSE,157,0.0,0.0,96,0.00,CLR,SKC,0.06,WeatherDisplay:10.37,2013-01-28 04:44:00,
2013-01-27 23:49:00,28.0,27.5,30.59,SSE,157,0.0,0.0,98,0.00,CLR,SKC,0.06,WeatherDisplay:10.37,2013-01-28 04:49:00,
2013-01-27 23:54:00,28.0,28.0,30.59,SSE,157,0.0,0.0,100,0.00,CLR,SKC,0.06,WeatherDisplay:10.37,2013-01-28 04:54:00,
2013-01-27 23:59:00,27.0,27.0,30.58,SSE,157,0.0,0.0,100,0.00,CLR,SKC,0.06,WeatherDisplay:10.37,2013-01-28 04:59:00,